TimeEST,TemperatureF,Dew PointF,Humidity,Sea Level PressureIn,VisibilityMPH,Wind Direction,Wind SpeedMPH,Gust SpeedMPH,PrecipitationIn,Events,Conditions,WindDirDegrees,DateUTC
12:15 AM,42.4,41.0,95,29.84,3.0,SW,3.5,-,N/A,,Overcast,220,2013-02-24 05:15:00
12:35 AM,42.6,41.0,94,29.84,3.0,SW,3.5,-,N/A,,Overcast,220,2013-02-24 05:35:00
12:55 AM,42.4,41.0,95,29.84,3.0,Calm,Calm,-,N/A,,Overcast,0,2013-02-24 05:55:00
1:15 AM,42.1,41.0,96,29.85,2.5,SSW,4.6,-,N/A,,Overcast,200,2013-02-24 06:15:00
1:35 AM,42.6,41.2,95,29.85,3.0,SSW,4.6,-,N/A,,Overcast,200,2013-02-24 06:35:00
1:55 AM,43.0,41.7,95,29.86,3.0,West,5.8,-,N/A,,Overcast,260,2013-02-24 06:55:00
2:15 AM,43.0,41.9,96,29.84,2.5,SW,4.6,-,N/A,,Overcast,220,2013-02-24 07:15:00
2:35 AM,42.8,41.9,97,29.84,0.8,SSW,4.6,-,N/A,,Overcast,210,2013-02-24 07:35:00
2:55 AM,42.8,41.9,97,29.83,0.5,SW,3.5,-,N/A,Fog,Fog,220,2013-02-24 07:55:00
3:15 AM,42.8,41.5,95,29.84,0.5,WSW,5.8,-,N/A,Fog,Fog,250,2013-02-24 08:15:00
3:35 AM,42.3,41.4,97,29.83,0.2,West,4.6,-,N/A,Fog,Fog,260,2013-02-24 08:35:00
3:55 AM,42.3,41.4,97,29.83,0.2,WSW,3.5,-,N/A,Fog,Fog,250,2013-02-24 08:55:00
4:15 AM,42.1,41.2,97,29.84,0.2,WSW,3.5,-,N/A,Fog,Fog,250,2013-02-24 09:15:00
4:35 AM,41.9,41.0,97,29.84,0.2,WSW,5.8,-,N/A,Fog,Fog,250,2013-02-24 09:35:00
4:55 AM,41.5,41.0,98,29.85,0.2,WSW,4.6,-,N/A,Fog,Fog,240,2013-02-24 09:55:00
5:15 AM,41.5,41.0,98,29.85,0.2,WSW,5.8,-,N/A,Fog,Fog,250,2013-02-24 10:15:00
5:35 AM,41.0,40.3,97,29.86,0.5,WSW,5.8,-,N/A,Fog,Fog,250,2013-02-24 10:35:00
5:55 AM,40.8,40.1,97,29.87,0.2,Calm,Calm,-,N/A,Fog,Fog,0,2013-02-24 10:55:00
6:15 AM,40.1,39.2,97,29.88,0.2,Calm,Calm,-,N/A,Fog,Fog,0,2013-02-24 11:15:00
6:35 AM,38.8,38.1,97,29.88,0.2,Calm,Calm,-,N/A,Fog,Fog,0,2013-02-24 11:35:00
6:55 AM,37.8,37.4,99,29.89,0.2,Calm,Calm,-,N/A,Fog,Fog,0,2013-02-24 11:55:00
7:15 AM,37.0,36.5,98,29.90,0.2,Calm,Calm,-,N/A,Fog,Fog,0,2013-02-24 12:15:00
7:35 AM,36.1,35.6,98,29.92,0.2,West,3.5,-,N/A,Fog,Fog,260,2013-02-24 12:35:00
8:15 AM,37.6,37.0,98,29.93,0.5,SSW,3.5,-,N/A,Fog,Fog,210,2013-02-24 13:15:00
8:35 AM,39.0,38.5,98,29.94,7.0,WSW,5.8,-,N/A,,Scattered Clouds,250,2013-02-24 13:35:00
8:55 AM,43.3,39.6,87,29.95,10.0,West,9.2,-,N/A,,Clear,270,2013-02-24 13:55:00
9:15 AM,45.9,38.3,75,29.95,10.0,West,9.2,-,N/A,,Clear,270,2013-02-24 14:15:00
9:35 AM,47.7,37.2,67,29.95,10.0,WNW,5.8,-,N/A,,Clear,300,2013-02-24 14:35:00
9:55 AM,50.5,36.1,58,29.96,10.0,WNW,12.7,16.1,N/A,,Clear,300,2013-02-24 14:55:00
10:15 AM,51.8,34.0,51,29.95,10.0,West,10.4,17.3,N/A,,Clear,280,2013-02-24 15:15:00
10:35 AM,53.1,34.0,48,29.95,10.0,West,15.0,19.6,N/A,,Clear,260,2013-02-24 15:35:00
10:55 AM,54.5,32.2,43,29.95,10.0,WNW,10.4,-,N/A,,Clear,290,2013-02-24 15:55:00
11:15 AM,55.0,30.7,40,29.96,10.0,West,11.5,17.3,N/A,,Clear,280,2013-02-24 16:15:00
11:35 AM,55.8,28.6,35,29.96,10.0,NW,9.2,18.4,N/A,,Clear,320,2013-02-24 16:35:00
11:55 AM,56.7,30.4,37,29.95,10.0,West,12.7,20.7,N/A,,Unknown,270,2013-02-24 16:55:00
12:15 PM,56.5,28.0,34,29.95,10.0,West,11.5,17.3,N/A,,Unknown,260,2013-02-24 17:15:00
12:35 PM,56.8,27.1,32,29.94,10.0,WNW,6.9,18.4,N/A,,Unknown,300,2013-02-24 17:35:00
12:55 PM,58.6,28.8,32,29.94,10.0,West,12.7,16.1,N/A,,Unknown,260,2013-02-24 17:55:00
1:15 PM,57.7,27.1,31,29.92,10.0,WSW,4.6,-,N/A,,Unknown,250,2013-02-24 18:15:00
1:35 PM,59.0,26.6,29,29.92,10.0,WSW,8.1,20.7,N/A,,Unknown,240,2013-02-24 18:35:00
1:55 PM,59.4,27.7,30,29.92,10.0,WSW,8.1,-,N/A,,Unknown,240,2013-02-24 18:55:00
2:15 PM,60.1,28.2,30,29.92,10.0,SW,5.8,17.3,N/A,,Unknown,220,2013-02-24 19:15:00
2:35 PM,59.9,25.9,27,29.91,10.0,Calm,Calm,-,N/A,,Unknown,0,2013-02-24 19:35:00
2:55 PM,60.6,27.3,28,29.91,10.0,Calm,Calm,-,N/A,,Unknown,0,2013-02-24 19:55:00
3:15 PM,60.6,25.0,26,29.91,10.0,WSW,4.6,-,N/A,,Unknown,250,2013-02-24 20:15:00
3:35 PM,61.0,26.6,27,29.91,10.0,NW,9.2,-,N/A,,Unknown,310,2013-02-24 20:35:00
3:55 PM,60.8,26.1,27,29.91,10.0,West,6.9,-,N/A,,Unknown,270,2013-02-24 20:55:00
4:15 PM,61.7,28.0,28,29.91,10.0,Calm,Calm,-,N/A,,Unknown,0,2013-02-24 21:15:00
4:35 PM,60.4,23.2,24,29.92,10.0,NNW,6.9,-,N/A,,Unknown,340,2013-02-24 21:35:00
4:55 PM,60.1,24.1,25,29.92,10.0,WNW,5.8,-,N/A,,Unknown,300,2013-02-24 21:55:00
5:15 PM,59.5,24.3,26,29.92,10.0,NW,8.1,-,N/A,,Unknown,310,2013-02-24 22:15:00
5:35 PM,58.5,22.3,25,29.93,10.0,NNW,4.6,-,N/A,,Clear,330,2013-02-24 22:35:00
5:55 PM,57.7,21.6,25,29.93,10.0,NNW,3.5,-,N/A,,Unknown,330,2013-02-24 22:55:00
6:15 PM,56.5,21.4,26,29.94,10.0,NNW,4.6,-,N/A,,Unknown,330,2013-02-24 23:15:00
6:35 PM,55.6,21.0,26,29.95,10.0,NW,4.6,-,N/A,,Unknown,320,2013-02-24 23:35:00
6:55 PM,53.6,21.9,29,29.96,10.0,WNW,6.9,-,N/A,,Clear,300,2013-02-24 23:55:00
7:15 PM,53.2,20.8,28,29.98,10.0,NNW,5.8,-,N/A,,Clear,340,2013-02-25 00:15:00
7:35 PM,50.7,21.7,32,29.99,10.0,WNW,6.9,-,N/A,,Clear,290,2013-02-25 00:35:00
7:55 PM,50.9,21.2,31,29.99,10.0,WNW,4.6,-,N/A,,Clear,300,2013-02-25 00:55:00
8:15 PM,50.0,22.3,34,30.01,10.0,WNW,3.5,-,N/A,,Clear,300,2013-02-25 01:15:00
8:35 PM,49.1,22.1,35,30.01,10.0,WNW,4.6,-,N/A,,Clear,290,2013-02-25 01:35:00
8:55 PM,49.1,22.1,35,30.01,10.0,WNW,3.5,-,N/A,,Clear,300,2013-02-25 01:55:00
9:15 PM,47.7,22.3,37,30.01,10.0,NW,4.6,-,N/A,,Clear,320,2013-02-25 02:15:00
9:35 PM,46.9,22.1,38,30.01,10.0,WNW,4.6,-,N/A,,Clear,300,2013-02-25 02:35:00
9:55 PM,40.8,24.3,52,30.02,10.0,Calm,Calm,-,N/A,,Clear,0,2013-02-25 02:55:00
10:15 PM,43.9,23.5,45,30.02,7.0,Calm,Calm,-,N/A,,Clear,0,2013-02-25 03:15:00
10:35 PM,43.5,23.7,46,30.02,10.0,NNW,3.5,-,N/A,,Clear,340,2013-02-25 03:35:00
10:55 PM,41.4,25.0,52,30.03,10.0,Calm,Calm,-,N/A,,Clear,0,2013-02-25 03:55:00
11:15 PM,40.8,24.8,53,30.02,10.0,Calm,Calm,-,N/A,,Clear,0,2013-02-25 04:15:00
11:35 PM,37.6,26.4,64,30.02,10.0,Calm,Calm,-,N/A,,Clear,0,2013-02-25 04:35:00
11:55 PM,33.8,27.7,78,30.02,10.0,ENE,3.5,-,N/A,,Clear,70,2013-02-25 04:55:00